Millville, NJ

3:16 PM EDT on April 25, 2018 (GMT -0400)
Millville Municipal

Weather History for KMIV - January, 2013

Change the Weather History Date:

Sunday, January 13, 2013

  Actual Average Record
Temperature  
Mean Temperature 48 °F -  
Max Temperature 53 °F 39 °F 64 °F (2005)
Min Temperature 42 °F 22 °F 1 °F (1981)
Degree Days  
Heating Degree Days 18    
Moisture  
Dew Point 46 °F    
Average Humidity 95    
Maximum Humidity 100    
Minimum Humidity 86    
Precipitation  
Precipitation 0.01 in - - ()
Sea Level Pressure  
Sea Level Pressure 30.09 in    
Wind  
Wind Speed 3 mph (SSE)    
Max Wind Speed 8 mph    
Max Gust Speed -    
Visibility 2 miles    
Events Fog    
Averages and records for this station are not official NWS values.
T = Trace of Precipitation, MM = Missing Value Source: NWS Daily Summary

Daily Weather History Graph

Daily Weather History Graph

Search for Another Location

Airport or City:

Astronomy

Jan. 13, 2013 Rise Set
Actual Time 7:19 AM EST 4:59 PM EST
Civil Twilight 6:49 AM EST 5:28 PM EST
Nautical Twilight 6:16 AM EST 6:02 PM EST
Astronomical Twilight 5:44 AM EST 6:34 PM EST
Moon 8:17 AM EST (1/13) 7:33 PM EST (1/13)
Length of Visible Light 10h 39m
Length of Day
9h 40m
Waxing Crescent, 5% of the Moon is Illuminated
Jan 13
Waxing Crescent
Jan 18
First Quarter
Jan 26
Full
Feb 3
Last Quarter
Feb 10
New

Hourly Weather History & Observations

Time (EST) Temp. Windchill Dew Point Humidity Pressure Visibility Wind Dir Wind Speed Gust Speed Precip Events Conditions
12:54 AM 43.0 °F 41.3 °F 42.1 °F 97% 30.14 in 0.2 mi Variable 3.5 mph - N/A Fog Fog
1:54 AM 42.1 °F 38.4 °F 41.0 °F 96% 30.14 in 0.2 mi ESE 5.8 mph - N/A Fog Fog
2:54 AM 42.1 °F - 42.1 °F 100% 30.15 in 0.2 mi Calm Calm - N/A Fog Fog
3:54 AM 43.0 °F - 42.1 °F 97% 30.14 in 0.2 mi Calm Calm - N/A Fog Fog
4:54 AM 42.1 °F 38.4 °F 42.1 °F 100% 30.12 in 0.2 mi SE 5.8 mph - N/A Fog Fog
5:54 AM 42.1 °F 39.2 °F 41.0 °F 96% 30.12 in 0.2 mi SE 4.6 mph - N/A Fog Fog
6:54 AM 42.1 °F 40.2 °F 41.0 °F 96% 30.13 in 0.2 mi SSE 3.5 mph - N/A Fog Fog
7:01 AM 42.8 °F - 41.0 °F 93% 30.13 in 0.5 mi Calm Calm - N/A Fog Fog
7:21 AM 42.8 °F 39.3 °F 41.0 °F 93% 30.13 in 0.2 mi SE 5.8 mph - N/A Fog Fog
7:54 AM 42.1 °F 38.4 °F 41.0 °F 96% 30.14 in 0.2 mi SE 5.8 mph - N/A Fog Fog
8:54 AM 42.1 °F 40.2 °F 42.1 °F 100% 30.15 in 0.2 mi SSE 3.5 mph - N/A Fog Fog
9:37 AM 42.8 °F - 42.8 °F 100% 30.15 in 0.5 mi Calm Calm - N/A Fog Fog
9:54 AM 44.1 °F 42.5 °F 43.0 °F 96% 30.16 in 0.5 mi South 3.5 mph - N/A Fog Fog
10:24 AM 44.6 °F 42.2 °F 44.6 °F 100% 30.16 in 1.2 mi South 4.6 mph - N/A   Overcast
10:36 AM 44.6 °F 41.4 °F 44.6 °F 100% 30.15 in 2.0 mi SE 5.8 mph - N/A   Overcast
10:54 AM 45.0 °F 43.5 °F 44.1 °F 97% 30.14 in 4.0 mi Variable 3.5 mph - N/A   Overcast
11:51 AM 48.2 °F - 44.6 °F 87% 30.13 in 10.0 mi Variable 4.6 mph - N/A   Overcast
11:54 AM 48.0 °F - 45.0 °F 89% 30.13 in 10.0 mi Variable 3.5 mph - N/A   Overcast
12:54 PM 48.0 °F - 45.0 °F 89% 30.10 in 10.0 mi SSE 5.8 mph - N/A   Overcast
1:54 PM 50.0 °F - 46.0 °F 86% 30.07 in 10.0 mi SSE 8.1 mph - N/A   Overcast
2:54 PM 51.1 °F - 46.9 °F 86% 30.07 in 10.0 mi Calm Calm - N/A   Overcast
3:54 PM 51.1 °F - 48.0 °F 89% 30.07 in 10.0 mi SSE 4.6 mph - N/A   Overcast
4:21 PM 51.8 °F - 48.2 °F 88% 30.07 in 7.0 mi SSE 3.5 mph - N/A   Overcast
4:36 PM 50.0 °F - 48.2 °F 94% 30.07 in 1.8 mi SSE 4.6 mph - N/A   Overcast
4:52 PM 50.0 °F - 48.2 °F 94% 30.06 in 0.5 mi SSE 4.6 mph - N/A Fog Fog
4:54 PM 50.0 °F - 48.9 °F 96% 30.06 in 0.5 mi SSE 5.8 mph - N/A Fog Fog
5:37 PM 48.2 °F - 48.2 °F 100% 30.06 in 1.2 mi Calm Calm - N/A   Overcast
5:54 PM 48.9 °F - 48.0 °F 97% 30.05 in 1.5 mi Variable 3.5 mph - N/A   Overcast
6:17 PM 50.0 °F - 48.2 °F 94% 30.05 in 0.8 mi Calm Calm - N/A   Mist
6:54 PM 50.0 °F - 48.9 °F 96% 30.05 in 0.5 mi Calm Calm - N/A Fog Fog
7:02 PM 50.0 °F - 48.2 °F 94% 30.06 in 0.2 mi Calm Calm - N/A Fog Fog
7:43 PM 50.0 °F - 48.2 °F 94% 30.05 in 0.5 mi Calm Calm - N/A Fog Fog
7:54 PM 50.0 °F - 50.0 °F 100% 30.04 in 0.5 mi Calm Calm - N/A Fog Fog
8:54 PM 50.0 °F - 50.0 °F 100% 30.02 in 0.5 mi Calm Calm - 0.01 in Fog Fog
9:54 PM 51.1 °F - 50.0 °F 96% 30.02 in 0.5 mi Calm Calm - N/A Fog Fog
10:54 PM 51.1 °F - 50.0 °F 96% 30.01 in 0.2 mi Calm Calm - N/A Fog Fog
11:45 PM 53.6 °F - 51.8 °F 94% 30.01 in 0.5 mi Calm Calm - N/A Fog Fog
11:54 PM 53.1 °F - 52.0 °F 96% 30.00 in 0.2 mi Calm Calm - N/A Fog Fog